Location: Buckeye Ditch
(40.9104°N, 122.9517°W)
Time: 13:25:31
(UTC+00:00)

Tiros 1 despin weight - Pass Details

Date: 20 May 2025
Orbit: 563 x 601 km, 48.2° (Epoch: 22 June)

Event Time Altitude Azimuth Distance (km) Brightness Sun altitude
Rises 11:27:33 0° 254° (WSW) 2,809 - -13.5°
Reaches altitude 10° 11:29:51 10° 259° (WSW) 1,916 - -13.2°
Exits shadow 11:30:42 15° 262° (W) 1,599 ? -13.0°
Maximum altitude 11:34:10 56° 337° (NNW) 712 ? -12.6°
Drops below altitude 10° 11:38:34 10° 57° (ENE) 1,939 ? -11.9°
Sets 11:40:54 0° 61° (ENE) 2,846 ? -11.6°
